TimeEST,TemperatureF,Dew PointF,Humidity,Sea Level PressureIn,VisibilityMPH,Wind Direction,Wind SpeedMPH,Gust SpeedMPH,PrecipitationIn,Events,Conditions,WindDirDegrees,DateUTC
12:15 AM,31.1,21.0,66,30.06,10.0,WNW,12.7,19.6,N/A,,Overcast,300,2013-01-05 05:15:00
12:35 AM,31.3,21.0,66,30.06,10.0,WNW,11.5,18.4,N/A,,Overcast,300,2013-01-05 05:35:00
12:55 AM,31.3,21.0,66,30.06,10.0,WNW,11.5,18.4,N/A,,Overcast,300,2013-01-05 05:55:00
1:15 AM,30.6,20.5,66,30.05,10.0,WNW,10.4,16.1,N/A,,Mostly Cloudy,300,2013-01-05 06:15:00
1:35 AM,30.0,20.3,67,30.06,10.0,WNW,8.1,-,N/A,,Scattered Clouds,300,2013-01-05 06:35:00
1:55 AM,29.5,20.1,68,30.07,10.0,West,6.9,-,N/A,,Scattered Clouds,270,2013-01-05 06:55:00
2:15 AM,28.4,19.9,71,30.07,10.0,West,5.8,-,N/A,,Scattered Clouds,270,2013-01-05 07:15:00
2:35 AM,28.4,20.1,71,30.08,10.0,WSW,5.8,-,N/A,,Clear,250,2013-01-05 07:35:00
2:55 AM,27.0,19.9,75,30.09,10.0,SW,4.6,-,N/A,,Clear,230,2013-01-05 07:55:00
3:15 AM,26.4,19.9,77,30.11,10.0,SW,5.8,-,N/A,,Scattered Clouds,220,2013-01-05 08:15:00
3:35 AM,25.7,19.9,79,30.12,10.0,SW,6.9,-,N/A,,Overcast,230,2013-01-05 08:35:00
3:55 AM,26.6,20.3,77,30.13,10.0,SW,6.9,-,N/A,,Overcast,220,2013-01-05 08:55:00
4:15 AM,26.6,20.7,78,30.13,10.0,SW,4.6,-,N/A,,Overcast,230,2013-01-05 09:15:00
4:35 AM,27.3,21.0,77,30.13,10.0,SW,3.5,-,N/A,,Overcast,230,2013-01-05 09:35:00
4:55 AM,27.5,21.2,77,30.13,10.0,SW,5.8,-,N/A,,Overcast,220,2013-01-05 09:55:00
5:15 AM,27.5,21.2,77,30.14,10.0,SW,4.6,-,N/A,,Overcast,220,2013-01-05 10:15:00
5:35 AM,27.5,21.4,78,30.14,10.0,SW,4.6,-,N/A,,Overcast,220,2013-01-05 10:35:00
5:55 AM,27.9,21.4,77,30.15,10.0,SW,4.6,-,N/A,,Overcast,220,2013-01-05 10:55:00
6:15 AM,27.5,21.6,78,30.15,10.0,SW,4.6,-,N/A,,Overcast,230,2013-01-05 11:15:00
6:35 AM,27.9,21.2,76,30.15,10.0,SW,4.6,-,N/A,,Overcast,230,2013-01-05 11:35:00
6:54 AM,28.4,21.2,74,30.15,10.0,West,3.5,-,N/A,,Overcast,270,2013-01-05 11:54:00
7:15 AM,27.7,21.2,77,30.16,10.0,Calm,Calm,-,N/A,,Overcast,0,2013-01-05 12:15:00
7:35 AM,26.4,21.9,83,30.15,10.0,Calm,Calm,-,N/A,,Overcast,0,2013-01-05 12:35:00
7:55 AM,27.5,21.2,77,30.15,10.0,Calm,Calm,-,N/A,,Overcast,0,2013-01-05 12:55:00
8:35 AM,25.0,20.3,82,30.16,10.0,Calm,Calm,-,N/A,,Overcast,0,2013-01-05 13:35:00
8:55 AM,24.6,20.8,86,30.16,10.0,Calm,Calm,-,N/A,,Overcast,0,2013-01-05 13:55:00
9:15 AM,24.8,20.7,84,30.16,10.0,Calm,Calm,-,N/A,,Mostly Cloudy,0,2013-01-05 14:15:00
9:35 AM,25.0,21.2,86,30.15,10.0,Calm,Calm,-,N/A,,Scattered Clouds,0,2013-01-05 14:35:00
9:55 AM,27.9,20.8,75,30.16,10.0,SSE,3.5,-,N/A,,Scattered Clouds,150,2013-01-05 14:55:00
10:15 AM,27.5,20.7,75,30.16,10.0,SSE,4.6,-,N/A,,Overcast,150,2013-01-05 15:15:00
10:55 AM,28.9,21.2,73,30.14,10.0,SE,4.6,-,N/A,,Mostly Cloudy,140,2013-01-05 15:55:00
11:15 AM,30.0,21.6,71,30.13,10.0,SE,4.6,-,N/A,,Clear,140,2013-01-05 16:15:00
12:15 PM,32.0,21.6,65,30.10,10.0,SSE,8.1,-,N/A,,Clear,160,2013-01-05 17:15:00
12:35 PM,31.8,21.4,65,30.09,10.0,SSE,5.8,-,N/A,,Clear,150,2013-01-05 17:35:00
12:55 PM,32.0,21.7,66,30.07,10.0,SE,8.1,-,N/A,,Clear,140,2013-01-05 17:55:00
1:15 PM,32.0,21.7,66,30.05,10.0,SSE,4.6,-,N/A,,Clear,150,2013-01-05 18:15:00
1:35 PM,32.0,21.7,66,30.04,10.0,SE,4.6,-,N/A,,Clear,130,2013-01-05 18:35:00
1:55 PM,32.0,22.5,68,30.03,10.0,ESE,5.8,-,N/A,,Clear,110,2013-01-05 18:55:00
2:15 PM,32.0,22.6,68,30.01,10.0,ESE,4.6,-,N/A,,Clear,110,2013-01-05 19:15:00
2:35 PM,32.4,22.6,67,30.00,10.0,South,4.6,-,N/A,,Clear,170,2013-01-05 19:35:00
2:55 PM,32.4,23.2,69,30.00,10.0,SE,4.6,-,N/A,,Clear,130,2013-01-05 19:55:00
3:15 PM,33.8,23.0,65,30.00,10.0,Calm,Calm,-,N/A,,Clear,0,2013-01-05 20:15:00
3:35 PM,32.5,23.9,70,29.99,10.0,ESE,6.9,-,N/A,,Clear,110,2013-01-05 20:35:00
3:55 PM,32.2,23.7,71,29.98,10.0,ESE,4.6,-,N/A,,Clear,120,2013-01-05 20:55:00
4:15 PM,32.0,23.5,71,29.98,10.0,SE,3.5,-,N/A,,Clear,140,2013-01-05 21:15:00
4:35 PM,32.0,23.9,72,29.97,10.0,Calm,Calm,-,N/A,,Mostly Cloudy,0,2013-01-05 21:35:00
4:55 PM,31.6,23.9,73,29.96,10.0,East,3.5,-,N/A,,Overcast,100,2013-01-05 21:55:00
5:15 PM,32.0,24.4,74,29.94,10.0,East,3.5,-,N/A,,Overcast,100,2013-01-05 22:15:00
5:55 PM,31.5,25.0,77,29.93,10.0,Calm,Calm,-,N/A,,Overcast,0,2013-01-05 22:55:00
6:15 PM,32.0,24.6,74,29.93,10.0,SSW,5.8,-,N/A,,Overcast,210,2013-01-05 23:15:00
6:35 PM,31.5,25.5,79,29.93,10.0,SW,6.9,-,N/A,,Overcast,220,2013-01-05 23:35:00
6:55 PM,31.1,25.3,79,29.93,10.0,SSW,5.8,-,N/A,,Overcast,200,2013-01-05 23:55:00
7:15 PM,30.7,25.2,80,29.91,10.0,Calm,Calm,-,N/A,,Overcast,0,2013-01-06 00:15:00
7:35 PM,30.7,25.3,80,29.91,10.0,South,3.5,-,N/A,,Overcast,170,2013-01-06 00:35:00
7:55 PM,30.9,25.2,79,29.90,10.0,SSE,4.6,-,N/A,,Overcast,160,2013-01-06 00:55:00
8:15 PM,30.7,25.5,81,29.89,10.0,SSE,5.8,-,N/A,,Overcast,150,2013-01-06 01:15:00
8:35 PM,30.6,25.7,82,29.89,10.0,SE,4.6,-,N/A,,Overcast,140,2013-01-06 01:35:00
8:55 PM,30.6,25.5,82,29.88,10.0,SSE,5.8,-,N/A,,Mostly Cloudy,150,2013-01-06 01:55:00
9:15 PM,30.6,25.7,82,29.87,10.0,SSE,6.9,-,N/A,,Overcast,150,2013-01-06 02:15:00
9:35 PM,30.6,25.7,82,29.86,7.0,SSE,5.8,-,N/A,,Scattered Clouds,160,2013-01-06 02:35:00
9:55 PM,30.6,25.9,83,29.85,7.0,SSE,4.6,-,N/A,,Scattered Clouds,160,2013-01-06 02:55:00
10:15 PM,30.2,26.1,85,29.84,7.0,SSE,3.5,-,N/A,,Scattered Clouds,160,2013-01-06 03:15:00
10:35 PM,30.2,26.2,85,29.84,7.0,Calm,Calm,-,N/A,,Mostly Cloudy,0,2013-01-06 03:35:00
10:55 PM,30.0,26.4,86,29.83,7.0,Calm,Calm,-,N/A,,Mostly Cloudy,0,2013-01-06 03:55:00
11:15 PM,30.7,27.1,86,29.83,7.0,SSE,3.5,-,N/A,,Overcast,150,2013-01-06 04:15:00
11:35 PM,31.1,27.5,87,29.82,7.0,SE,4.6,-,N/A,,Overcast,140,2013-01-06 04:35:00
11:55 PM,31.1,27.9,88,29.82,7.0,SSE,4.6,-,N/A,,Overcast,150,2013-01-06 04:55:00